Vorticity
11 8 2 4 12 16 19 10 10 22 19 24 19 9 11 0 17 23 14 -0 1 -10 15 7 4 4 9 10 11 8 8 8 8 9 7 7 7 8 9 11 11 9 8 9
6 3 7 13 17 4 9 7 14 12 17 5 15 4 14 19 20 10 19 17 33 11 6 4 3 8 9 10 9 8 8 8 8 8 8 8 8 10 12 9 8 9 10 10
8 -0 -0 8 5 14 11 5 13 1 9 -4 19 11 8 10 35 12 1 -12 10 17 10 8 4 6 7 6 8 10 8 8 7 8 9 8 12 10 9 9 9 9 10 10
14 11 10 12 1 9 16 16 6 12 4 -4 6 8 12 9 -10 9 -8 -4 4 11 14 12 7 8 9 9 8 8 9 8 8 10 9 13 9 10 9 8 10 8 7 8
11 13 11 12 11 5 11 14 13 5 4 12 7 6 8 8 13 14 4 12 2 3 14 10 3 11 7 6 11 10 10 9 9 10 11 9 10 8 8 7 6 7 9 10
-12 -4 12 11 6 7 7 14 9 27 4 7 10 13 7 14 7 10 4 21 -1 8 12 7 6 7 10 14 9 9 9 9 10 9 8 9 7 6 6 6 6 8 7 6
20 8 9 1 9 11 8 6 28 22 35 14 11 10 9 20 26 23 15 13 2 6 -4 -4 -4 1 13 8 9 7 10 9 10 7 7 6 5 5 5 5 7 7 6 7
19 21 13 9 -10 13 29 3 21 -22 -6 30 54 42 4 8 14 10 20 30 15 0 4 15 7 4 10 7 8 9 8 10 8 6 7 6 6 5 5 5 6 7 6 5
22 28 16 26 -3 -23 23 2 -1 -8 1 -16 11 11 39 15 0 18 -7 25 21 5 14 12 13 6 8 8 8 9 10 7 6 6 7 6 6 5 4 5 5 6 6 5
2 27 19 -3 28 1 -8 7 5 -0 -9 -12 19 2 10 18 14 6 12 15 10 10 10 8 9 4 6 7 8 9 9 6 6 7 6 5 5 4 4 4 4 5 5 6
14 5 26 28 10 15 8 -7 -10 4 7 10 10 1 7 20 18 25 17 3 12 10 8 8 7 7 9 8 12 11 7 7 7 6 4 4 4 5 5 4 4 5 5 6
13 20 -1 10 25 10 10 10 9 8 8 5 14 9 14 4 10 13 30 15 -3 6 8 10 9 10 9 8 11 8 7 7 5 3 4 4 5 6 5 6 6 6 6 5
20 23 7 9 10 20 15 6 7 11 5 8 13 12 3 19 10 13 12 18 5 4 5 10 10 10 10 9 9 7 7 5 4 3 4 6 5 6 5 5 6 6 5 4
12 10 14 12 14 9 16 19 6 0 5 9 -10 7 15 14 10 16 12 12 14 7 4 9 13 14 11 11 8 6 5 5 3 5 5 5 5 6 5 6 6 6 4 3
12 10 13 11 11 12 8 13 17 9 5 5 -1 -1 11 19 13 10 15 18 10 10 11 12 10 9 10 10 6 5 4 4 4 4 5 5 6 5 5 6 5 4 4 3
6 9 16 6 4 12 7 9 12 16 10 10 13 11 5 18 14 16 7 19 13 8 15 11 8 9 10 8 6 4 4 5 5 4 5 5 5 6 6 5 5 3 5 2
21 14 13 20 6 6 13 8 8 11 13 10 11 8 7 18 15 10 10 13 10 11 17 10 9 11 9 6 5 4 5 4 4 5 4 5 6 6 6 6 5 4 5 1
25 12 15 14 19 13 11 12 7 7 11 15 14 10 7 13 10 10 11 8 14 14 20 9 8 10 6 5 4 5 5 4 4 5 5 6 6 6 6 6 5 4 6 -1
23 13 13 15 23 19 19 15 8 6 9 19 14 11 7 11 8 12 13 9 14 12 11 12 8 6 5 4 4 5 6 5 5 5 5 6 7 7 6 5 6 4 7 -0
26 23 12 16 17 22 24 14 12 9 5 9 12 17 3 4 9 9 13 17 13 5 16 14 11 8 5 6 6 5 4 5 5 5 6 6 7 7 5 6 7 3 8 0
35 24 15 17 17 24 23 13 13 13 7 16 14 9 9 11 -4 6 17 12 12 5 10 14 7 9 8 6 4 4 5 6 6 6 6 7 6 6 6 6 8 4 7 3
38 40 20 13 20 25 20 14 11 16 11 11 8 10 9 12 8 9 15 12 11 8 8 14 16 6 2 3 4 5 7 6 6 7 7 6 6 6 7 5 8 9 -1 12
46 41 29 10 22 18 20 15 13 16 10 4 7 10 10 5 11 4 10 16 10 4 6 12 11 10 8 6 6 6 5 5 7 7 6 6 5 7 8 8 7 5 5 13
38 39 23 23 13 22 18 14 25 15 13 13 12 8 10 12 4 12 6 4 14 10 7 4 6 8 5 5 5 5 5 7 7 6 5 6 8 8 8 8 12 -2 12 11
37 30 30 15 19 25 12 26 -10 14 16 20 14 13 5 12 14 5 16 13 6 7 8 9 9 6 7 7 7 6 6 5 5 6 9 8 6 8 10 15 -2 11 10 12
31 41 26 26 24 12 3 18 7 11 18 23 14 14 9 7 13 17 3 10 10 10 6 3 4 7 6 6 5 6 7 8 7 7 6 7 10 12 15 0 10 10 11 11
8 11 29 32 5 6 -1 28 6 8 6 19 21 15 14 7 4 13 10 8 7 6 7 10 12 12 7 7 9 7 5 5 7 9 10 11 11 9 9 9 10 10 12 10
Height
5604 5611 5616 5619 5624 5630 5634 5642 5643 5657 5663 5665 5669 5674 5680 5686 5688 5690 5695 5700 5706 5712 5716 5721 5724 5727 5730 5733 5736 5738 5741 5743 5744 5746 5746 5746 5745 5744 5743 5742 5741 5739 5736 5733
5591 5599 5603 5606 5612 5618 5624 5631 5634 5643 5645 5654 5658 5662 5669 5676 5681 5686 5691 5695 5697 5702 5706 5711 5715 5719 5722 5724 5727 5730 5732 5734 5736 5737 5738 5737 5737 5737 5736 5735 5733 5730 5728 5725
5578 5587 5588 5589 5602 5610 5615 5619 5627 5628 5639 5644 5644 5653 5661 5666 5672 5678 5683 5685 5689 5694 5698 5702 5706 5710 5713 5716 5719 5722 5724 5726 5728 5729 5729 5730 5730 5730 5728 5727 5725 5722 5720 5717
5562 5570 5569 5588 5593 5600 5605 5610 5616 5620 5623 5628 5633 5644 5650 5657 5662 5665 5673 5677 5680 5684 5687 5691 5695 5700 5705 5709 5711 5714 5716 5718 5720 5721 5722 5722 5722 5722 5721 5720 5718 5716 5713 5710
5546 5554 5562 5570 5584 5592 5594 5600 5605 5608 5613 5621 5626 5629 5633 5644 5651 5659 5664 5669 5673 5675 5678 5680 5686 5692 5697 5701 5704 5706 5708 5710 5712 5713 5714 5715 5715 5715 5714 5713 5711 5709 5706 5704
5534 5536 5543 5567 5574 5578 5584 5584 5596 5599 5602 5610 5615 5614 5626 5636 5642 5648 5651 5656 5664 5666 5669 5671 5676 5684 5689 5692 5695 5697 5700 5702 5704 5706 5707 5708 5708 5708 5707 5705 5704 5701 5700 5698
5520 5521 5534 5551 5562 5564 5570 5589 5585 5590 5594 5598 5600 5608 5617 5619 5625 5632 5639 5645 5653 5658 5661 5666 5671 5676 5680 5683 5686 5688 5691 5694 5697 5698 5700 5700 5701 5700 5699 5698 5696 5695 5693 5690
5504 5506 5517 5544 5552 5552 5556 5563 5566 5570 5574 5579 5583 5589 5598 5606 5612 5619 5626 5634 5640 5646 5653 5658 5660 5666 5671 5675 5677 5680 5683 5686 5689 5690 5692 5693 5693 5692 5692 5690 5688 5686 5684 5681
5480 5492 5522 5515 5518 5533 5543 5549 5554 5561 5565 5570 5572 5577 5583 5593 5600 5608 5616 5622 5629 5636 5642 5646 5652 5657 5662 5665 5669 5671 5675 5678 5680 5683 5684 5685 5685 5685 5684 5682 5680 5678 5675 5671
5471 5487 5483 5494 5509 5518 5526 5533 5540 5548 5556 5561 5566 5571 5572 5581 5591 5598 5603 5610 5617 5623 5629 5635 5641 5647 5651 5655 5659 5663 5667 5670 5672 5674 5676 5676 5677 5677 5675 5674 5672 5669 5665 5661
5460 5469 5476 5486 5491 5501 5513 5521 5528 5536 5545 5551 5557 5563 5566 5571 5576 5586 5593 5601 5606 5611 5619 5625 5630 5637 5642 5647 5651 5655 5659 5661 5664 5666 5667 5669 5669 5668 5666 5665 5663 5660 5656 5652
5446 5462 5454 5468 5478 5487 5496 5505 5514 5522 5532 5540 5546 5551 5556 5563 5567 5573 5580 5590 5597 5601 5606 5612 5620 5626 5632 5637 5641 5646 5650 5653 5655 5657 5659 5660 5659 5659 5658 5656 5653 5650 5647 5643
5431 5435 5435 5453 5462 5473 5483 5491 5500 5509 5519 5529 5534 5540 5545 5551 5558 5563 5570 5579 5586 5591 5595 5602 5610 5616 5623 5628 5632 5637 5640 5644 5646 5648 5650 5650 5650 5650 5648 5646 5643 5640 5637 5634
5410 5411 5419 5436 5447 5455 5463 5474 5484 5495 5504 5515 5523 5529 5535 5541 5548 5554 5559 5565 5572 5578 5583 5591 5600 5607 5614 5618 5622 5627 5631 5635 5637 5639 5640 5640 5641 5640 5638 5636 5633 5630 5627 5624
5390 5389 5407 5418 5427 5438 5446 5458 5468 5480 5491 5503 5511 5518 5525 5531 5537 5541 5546 5553 5559 5566 5574 5581 5588 5595 5603 5608 5613 5619 5623 5625 5628 5629 5630 5631 5631 5630 5628 5626 5623 5621 5618 5614
5369 5367 5380 5390 5405 5419 5427 5439 5451 5464 5476 5489 5500 5507 5512 5518 5524 5531 5537 5541 5549 5557 5563 5572 5579 5588 5594 5600 5605 5610 5613 5616 5618 5620 5621 5621 5621 5620 5618 5616 5614 5612 5608 5604
5331 5345 5362 5370 5387 5404 5416 5425 5437 5450 5461 5474 5485 5493 5500 5507 5515 5523 5528 5532 5539 5547 5556 5564 5572 5579 5584 5590 5595 5599 5603 5606 5608 5610 5611 5611 5610 5610 5608 5606 5604 5602 5598 5594
5313 5330 5339 5355 5368 5381 5395 5409 5419 5433 5447 5460 5471 5480 5489 5497 5505 5513 5519 5522 5529 5537 5547 5553 5561 5567 5573 5580 5586 5590 5594 5596 5598 5600 5600 5600 5600 5599 5598 5596 5594 5591 5588 5583
5299 5312 5324 5338 5352 5366 5384 5396 5406 5421 5434 5447 5458 5468 5478 5486 5495 5503 5510 5515 5521 5530 5538 5547 5552 5558 5565 5571 5576 5581 5584 5586 5588 5589 5589 5590 5589 5588 5587 5585 5582 5580 5577 5573
5283 5294 5307 5321 5333 5350 5370 5382 5394 5408 5423 5434 5445 5456 5467 5477 5485 5493 5501 5508 5514 5525 5534 5540 5545 5551 5557 5562 5566 5570 5573 5576 5577 5578 5579 5579 5578 5577 5575 5573 5572 5569 5566 5562
5273 5284 5296 5308 5322 5340 5356 5367 5383 5397 5411 5422 5434 5446 5456 5465 5474 5482 5491 5499 5504 5511 5521 5527 5535 5542 5548 5552 5556 5560 5563 5565 5566 5567 5568 5568 5567 5566 5564 5562 5560 5558 5555 5550
5262 5272 5288 5303 5316 5331 5344 5359 5373 5385 5398 5411 5422 5433 5446 5456 5465 5473 5481 5490 5498 5505 5511 5519 5526 5532 5537 5542 5546 5550 5552 5554 5555 5556 5557 5556 5556 5554 5553 5551 5549 5546 5543 5539
5250 5263 5278 5295 5312 5325 5335 5349 5363 5376 5390 5401 5412 5425 5438 5448 5457 5465 5474 5482 5488 5494 5500 5510 5516 5522 5527 5533 5537 5539 5541 5543 5545 5545 5545 5545 5544 5543 5541 5540 5538 5535 5532 5528
5247 5260 5275 5288 5302 5316 5332 5345 5358 5371 5381 5391 5402 5414 5424 5436 5447 5455 5463 5472 5481 5488 5496 5503 5508 5512 5517 5522 5525 5528 5531 5532 5533 5533 5533 5533 5532 5531 5529 5528 5526 5523 5520 5516
5251 5261 5274 5289 5303 5317 5329 5340 5353 5364 5374 5384 5395 5406 5418 5428 5438 5449 5459 5464 5470 5478 5486 5492 5498 5503 5509 5512 5515 5517 5519 5520 5521 5522 5522 5521 5519 5519 5517 5516 5514 5511 5508 5503
5266 5269 5280 5292 5303 5314 5328 5341 5353 5362 5372 5382 5392 5402 5414 5423 5432 5441 5447 5455 5463 5471 5476 5481 5487 5493 5497 5501 5504 5506 5508 5509 5509 5509 5509 5508 5507 5506 5505 5504 5502 5499 5495 5491
5275 5280 5286 5294 5304 5315 5326 5337 5350 5360 5369 5378 5388 5399 5409 5419 5426 5433 5439 5447 5454 5461 5467 5473 5479 5484 5488 5491 5493 5494 5495 5496 5497 5497 5496 5496 5495 5494 5493 5491 5488 5485 5482 5479